Kosmos-2307

operational
NORAD ID: 23511 Int'l Des: 1995-009 Owner: VKS Country: RU Constellation: GLONASS
MEOCIRCULAR

Über Kosmos-2307

Beschreibung wird geladen...

Live-Position

3D-Globus wird geladen...

Nächste Überflüge

Höhenverlauf

Altitude vs Time

uPlot chart will show altitude changes over time

Zweizeiliger Elementsatz

1 23511U 95009A 25304.51717626 .00000007 00000-0 00000+0 0 9990
2 23511 64.1706 309.3445 0004990 144.6709 27.2442 2.13105250238327
Epoch: 31. Okt. 2025 • Age: 23 hours

Aktueller Status

Höhe 19123.9 km
Geschwindigkeit 3.95 km/s
Subsatellitenpunkt -11.40°S, 79.85°W
Startdatum 7. März 1995
Alter 30.6 years
Typ other

Technische Details

Klassifizierung Payload
Masse 1300.00 kg
Trockenmasse 1200.00 kg
Gesamtmasse 1300.00 kg
Länge 4.00 m
Durchmesser 1.50 m
Spannweite 7.80 m
Form Cyl + Ant + 2 Pan
Hersteller POL
Bus-Typ Uragan
Phasenstatus In Orbit
Besitzer/Staat VKS/RU

Große Konstellationen

Loading constellations...